User: anonymous   Login
Location: Pleiades Observatory
(40.1297°N, 91.5238°W)
Time: 13:50:19
(UTC-06:00)
Language:

Cosmos 1842 Rocket - Orbit

View from above orbital plane
View from above orbital plane
View from above satellite
View from above satellite

Ground track
Ground track

The orbit data is extracted from the following two-line orbital elements,

1 17912U 87038B   16336.86345727 +.00000112 +00000-0 +10783-4 0  9994
2 17912 082.5038 235.4958 0020808 156.4647 203.7525 14.82904384577405
Epoch (UTC): 01 December 2016 20:43:22
Eccentricity: 0.0020808
inclination: 82.5038°
perigee height: 605 km
apogee height: 635 km
right ascension of ascending node: 235.4958°
argument of perigee: 156.4647°
revolutions per day: 14.82904384
mean anomaly at epoch: 203.7525°
orbit number at epoch: 57740

The dashed part of the orbit path shows where the satellite is in the earth's shadow,  

DLR